Regional Weather Roundup
Issued by NWS Cleveland, OH

Home | Current Version | Previous Version | Text Only | Print | Product List | Glossary Off
Versions: 1 2 3 4 5 6 7 8 9 10 11 12 13 14 15 16 17 18 19 20 21 22 23 24 25 26 27 28 29 30 31 32 33 34 35 36 37 38 39 40 41 42 43 44 45 46 47 48 49 50

473
ASUS41 KCLE 191810
RWRCLE
OHIO REGIONAL WEATHER ROUNDUP
NATIONAL WEATHER SERVICE WILMINGTON, OH
200 PM EDT THU APR 19 2018

NOTE: "FAIR" INDICATES FEW OR NO CLOUDS BELOW 12,000 FEET WITH NO
SIGNIFICANT WEATHER AND/OR OBSTRUCTIONS TO VISIBILITY.

OHZ001>008-015>018-024>027-034-035-043-044-191900-
   NORTHWEST OHIO

CITY           SKY/WX    TMP DP  RH WIND       PRES   REMARKS
DEFIANCE       FAIR      49  32  52 NW17G24   30.20S
FINDLAY        FAIR      49  30  48 W17G24    30.17S
TOLEDO EXPRESS FAIR      51  26  37 NW18      30.17R
TOLEDO EXEC    FAIR      51  27  39 NW14      30.17R
LIMA           FAIR      46  33  60 NW12G24   30.20R
$$

OHZ009>014-019>023-028>033-038-089-191900-
   NORTHEAST OHIO

CITY           SKY/WX    TMP DP  RH WIND       PRES   REMARKS
CLE-HOPKINS    CLOUDY    42  29  59 NW20      30.16R
CLE-LAKEFRONT  PTSUNNY   41  29  62 NW18      30.13R
CUY CO. ARPT   PTSUNNY   39  30  70 NW14G23   30.13R
LORAIN-ELYRIA  FAIR      42  26  53 N17G25    30.15R
ASHTABULA      CLOUDY    36  28  73 NW12G20   30.09R
AKRON-CANTON   CLOUDY    39  28  64 NW15      30.10R
WOOSTER        CLOUDY    40  30  67 NW17G28   30.13R
MANSFIELD      PTSUNNY   44  31  60 NW14G28   30.13R
YOUNGSTOWN     CLOUDY    38  27  64 NW23G29   30.06R
$$

OHZ042-051>053-060>062-070>072-077>081-191900-
  SOUTHWEST OHIO

CITY           SKY/WX    TMP DP  RH WIND       PRES   REMARKS
CINC-COVINGTON PTSUNNY   46  29  51 N13G20    30.25R
CINC-LUNKEN    CLOUDY    48  34  58 N9        30.27R
HAMILTON       PTSUNNY   49  33  54 N10       30.27R
DAYTON         PTSUNNY   45  32  60 NW14      30.23R
WRIGHT-PAT AFB CLOUDY    46  30  53 N13G23    30.22R
DAYTON GENERAL PTSUNNY   47  29  49 NW13      30.23R
WILMINGTON     CLOUDY    43  31  62 NW12G21   30.22R
$$

OHZ036-037-039>041-045>050-054>059-063>069-073>076-082>088-191900-
  CENTRAL AND SOUTHEAST OHIO

CITY           SKY/WX    TMP DP  RH WIND       PRES   REMARKS
COLUMBUS       CLOUDY    44  30  57 NW15G24   30.18R
OSU AIRPORT    PTSUNNY   45  31  58 NW16G24   30.18R
BOLTON FIELD   CLOUDY    43  32  65 N15G21    30.20R
RICKENBACK AFB CLOUDY    43  30  60 NW15      30.20R
NEWARK         CLOUDY    43  30  60 NW13G22   30.16R
MARION         PTSUNNY   45  29  53 NW17G23   30.17R
LANCASTER      CLOUDY    42  31  64 NW15      30.19R
ZANESVILLE     CLOUDY    42  30  62 NW13G20   30.15R
NEW PHILLY     CLOUDY    41  28  60 NW21      30.13R
$$




USA.gov is the U.S. government's official web portal to all federal, state and local government web resources and services.